Simultaneous Nadir Overpasses (SNOs) Predictions

Prediction of SNOs between METOP-A and NOAA-19 Satellite Orbit:

Table of predicted SNOs for the next 14.0 days since TLE Epoch: 1/8/2018
Index Date (METOP-A) Time (METOP-A) Lat,Lon (METOP-A) SZA (METOP-A ) Date (NOAA-19) Time (NOAA-19) Lat,Lon (NOAA-19) SZA (NOAA-19 ) Distance(km) Time Diff (sec)
1 01/10/2018 10:49:19 78.04, 24.66 99.94 01/10/2018 10:48:12 78.04, 24.61 99.94 1.21 67
2 01/10/2018 11:40:01 -78.02,-168.11 80.09 01/10/2018 11:39:15 -78.04,-168.14 80.07 2.06 46
3 01/10/2018 12:30:41 78.02, -0.78 99.91 01/10/2018 12:30:13 78.03, -0.82 99.92 1.27 28
4 01/10/2018 13:21:23 -78.00, 166.44 80.12 01/10/2018 13:21:16 -78.03, 166.43 80.10 2.79 7
5 01/10/2018 14:12:03 78.00, -26.23 99.88 01/10/2018 14:12:14 78.02, -26.26 99.89 1.89 11
6 01/10/2018 15:02:45 -77.98, 141.00 80.15 01/10/2018 15:03:17 -78.01, 141.00 80.12 3.60 32
7 01/10/2018 15:53:25 77.98, -51.67 99.84 01/10/2018 15:54:15 78.00, -51.69 99.87 2.72 50
8 01/10/2018 16:44:06 -78.00, 115.76 80.14 01/10/2018 16:45:17 -77.96, 115.79 80.18 4.37 71
9 01/21/2018 06:07:44 -78.06, -84.90 82.08 01/21/2018 06:06:34 -78.08, -84.85 82.07 2.22 70
10 01/21/2018 06:58:24 78.06, 82.42 97.91 01/21/2018 06:57:30 78.07, 82.46 97.92 1.50 54
11 01/21/2018 07:49:06 -78.04,-110.35 82.12 01/21/2018 07:48:35 -78.06,-110.28 82.10 3.15 31
12 01/21/2018 08:39:46 78.04, 56.98 97.88 01/21/2018 08:39:31 78.06, 57.02 97.90 2.47 15
13 01/21/2018 09:30:27 -78.06,-135.59 82.11 01/21/2018 09:30:36 -78.05,-135.71 82.12 2.95 9
14 01/21/2018 10:21:08 78.02, 31.53 97.84 01/21/2018 10:21:32 78.05, 31.59 97.87 3.45 24
15 01/21/2018 11:11:49 -78.04,-161.03 82.15 01/21/2018 11:12:37 -78.04,-161.14 82.15 2.48 48
16 01/21/2018 12:02:29 78.04, 6.29 97.84 01/21/2018 12:03:33 78.03, 6.16 97.84 3.18 64




NCC Satellite Simultaneous Nadir Overpasses (SNOs) Prediction Service
